Home > Weather > Waterford > Past weeks

Flag for Ireland Past Weather in Waterford, Ireland — Yesterday and Last 2 Weeks

Now
64 °F

Scattered clouds.


Feels Like: 64 °F
Forecast: 52 / 65 °F
Wind: 12 mph from West

Location: Cork Airport

Current Time: Aug 26, 2016 at 2:57:23 PM

Latest Report: Aug 26, 2016 at 2:30 PM


Visibility: N/A

Pressure: 30.04 "Hg

Humidity: 60%

Dew Point: 50 °F

Location of WaterfordLocation

Past Weather in Waterford — Graph

°F

Waterford Temperature Yesterday

Maximum temperature yesterday: 64 °F (at 1:00 PM)
Minimum temperature yesterday: 50 °F (at 6:30 AM)
Average temperature yesterday: 57 °F

High & Low Weather Summary for the Past Weeks

 TemperatureHumidityPressure
High70 °F (Aug 11, 2:00 PM)100% (Aug 12, 1:00 AM)30.30 "Hg (Aug 12, 1:00 AM)
Low50 °F (Aug 12, 1:00 AM)53% (Aug 11, 1:00 PM)29.27 "Hg (Aug 19, 4:00 PM)
Average59 °F87%29.99 "Hg
* Reported Aug 11 1:00 PM — Aug 26 1:30 PM, Waterford, Weather by CustomWeather, © 2016

Note: Actual official high and low records may vary slightly from our data, if they occured in-between our weather recording intervals... More about our weather records

Advertising

Waterford Weather History for the Previous 24 Hours

Scroll right to see more
 ConditionsComfort  
Time TempWeatherWind HumidityBarometerVisibility
1:30 PM
Fri, Aug 26
64 °FScattered clouds.13 mph56%30.04 "HgN/A
1:00 PM64 °FScattered clouds.16 mph64%30.04 "HgN/A
12:30 PM63 °FScattered clouds.16 mph64%30.04 "HgN/A
12:00 PM63 °FScattered clouds.14 mph64%30.04 "HgN/A
11:30 AM63 °FScattered clouds.14 mph68%30.04 "HgN/A
11:00 AM61 °FScattered clouds.14 mph72%30.04 "HgN/A
10:30 AM61 °FScattered clouds.13 mph83%30.04 "HgN/A
10:00 AM59 °FPartly sunny.12 mph88%30.01 "HgN/A
9:30 AM59 °FPartly sunny.12 mph88%30.01 "HgN/A
9:00 AM57 °FBroken clouds.12 mph94%30.01 "HgN/A
8:30 AM57 °FBroken clouds.10 mph94%30.01 "HgN/A
8:00 AM57 °FBroken clouds.13 mph94%29.98 "HgN/A
7:30 AM55 °FSprinkles. Partly cloudy.12 mph100%29.98 "HgN/A
7:00 AM55 °FSprinkles. Partly cloudy.7 mph94%29.98 "HgN/A
6:30 AM54 °FPassing clouds.6 mph100%29.98 "HgN/A
6:00 AM54 °FPassing clouds.9 mph100%29.98 "HgN/A
5:30 AM54 °FPartly cloudy.7 mph100%29.98 "HgN/A
5:00 AM54 °FSprinkles. Partly cloudy.8 mph100%29.98 "HgN/A
4:30 AM52 °FFog.6 mph94%29.98 "HgN/A
4:00 AM52 °FPassing clouds.6 mph94%29.98 "HgN/A
3:30 AM52 °FPassing clouds.7 mph94%29.98 "HgN/A
3:00 AM52 °FPassing clouds.7 mph94%29.98 "HgN/A
2:30 AM52 °FPassing clouds.7 mph94%29.98 "HgN/A
2:00 AM52 °FPassing clouds.7 mph100%29.98 "HgN/A
1:30 AM52 °FPassing clouds.8 mph100%29.98 "HgN/A
1:00 AM52 °FPassing clouds.9 mph94%29.98 "HgN/A
12:30 AM52 °FPassing clouds.7 mph100%29.98 "HgN/A
12:00 AM54 °FPassing clouds.7 mph94%29.98 "HgN/A
11:30 PM
Thu, Aug 25
54 °FPassing clouds.7 mph94%29.98 "HgN/A
11:00 PM54 °FPassing clouds.8 mph94%29.98 "HgN/A
10:30 PM54 °FPassing clouds.7 mph94%29.98 "HgN/A
10:00 PM55 °FPartly cloudy.6 mph94%29.98 "HgN/A
9:30 PM55 °FBroken clouds.6 mph100%29.98 "HgN/A
9:00 PM57 °FPartly sunny.10 mph94%29.98 "HgN/A
8:30 PM57 °FBroken clouds.9 mph94%29.98 "HgN/A
8:00 PM57 °FBroken clouds.9 mph94%29.98 "HgN/A
7:30 PM57 °FBroken clouds.12 mph94%29.98 "Hg5 mi
7:00 PM59 °FBroken clouds.10 mph88%29.98 "HgN/A
6:30 PM61 °FPartly sunny.12 mph83%29.98 "HgN/A
6:00 PM61 °FPartly sunny.13 mph77%29.98 "HgN/A
5:30 PM61 °FScattered clouds.10 mph83%29.98 "HgN/A
5:00 PM63 °FScattered clouds.13 mph77%29.98 "HgN/A
4:30 PM63 °FPassing clouds.13 mph77%29.98 "HgN/A
4:00 PM63 °FPassing clouds.13 mph77%29.98 "HgN/A
3:30 PM63 °FPassing clouds.13 mph73%30.01 "HgN/A
3:00 PM64 °FPassing clouds.12 mph73%30.01 "HgN/A
2:30 PM64 °FPassing clouds.10 mph64%30.01 "HgN/A
2:00 PM64 °FScattered clouds.9 mph68%30.01 "HgN/A
Weather by CustomWeather, © 2016

See weather overviewHow to use our weather pages